EW8473 Weather Reports


time (UTC)temp
C
wind
direction
speed
KPH
gust
KPH
rain 1hr
cm
rain 24hr
cm
rain mn
cm
humidity
%
barometer
mb
20260510205010 27 89 4.8 14.5 0.00 0.33 0.03 33 1015.6
20260510204508 27 115 6.4 14.5 0.00 0.33 0.03 34 1015.6
20260510204006 27 102 8.0 12.9 0.00 0.33 0.03 21 1015.6
20260510203504 27 150 4.8 12.9 0.00 0.33 0.03 28 1015.5
20260510203004 27 177 6.4 17.7 0.00 0.33 0.03 25 1015.4
20260510202502 27 81 9.7 17.7 0.00 0.33 0.03 27 1015.3
20260510202100 27 134 8.0 17.7 0.00 0.33 0.03 24 1015.3
20260510201559 27 175 4.8 17.7 0.00 0.33 0.03 22 1015.4
20260510201100 27 128 8.0 16.1 0.00 0.33 0.03 19 1015.6
20260510200556 27 105 4.8 16.1 0.00 0.33 0.03 18 1015.7
20260510200055 27 159 8.0 20.9 0.00 0.33 0.03 17 1015.7
20260510195553 27 136 9.7 20.9 0.00 0.48 0.03 17 1015.7
20260510195051 27 124 9.7 19.3 0.00 0.48 0.03 13 1015.7
20260510194551 27 146 6.4 19.3 0.00 0.48 0.03 18 1015.6
20260510194048 27 173 9.7 19.3 0.00 0.48 0.03 17 1015.7
20260510193547 27 107 6.4 16.1 0.00 0.48 0.03 21 1015.7
20260510193050 27 98 9.7 16.1 0.00 0.48 0.03 29 1015.7
20260510192543 27 180 6.4 22.5 0.00 0.48 0.03 22 1015.8
20260510192043 27 156 4.8 22.5 0.00 0.48 0.03 18 1015.8
20260510191542 27 124 9.7 19.3 0.00 0.48 0.03 17 1015.9
20260510191042 27 169 6.4 19.3 0.00 0.48 0.03 11 1015.8
20260510190538 27 150 9.7 19.3 0.00 0.48 0.03 5 1015.8
20260510190038 27 142 8.0 20.9 0.00 0.48 0.03 4 1015.8
20260510185536 27 150 11.3 20.9 0.00 0.71 0.03 4 1015.7
20260510185034 27 101 9.7 25.7 0.00 0.71 0.03 1 1015.6
20260510184532 27 165 8.0 25.7 0.00 0.71 0.03 1 1015.7
20260510184031 28 121 4.8 24.1 0.00 0.71 0.03 1 1015.8
20260510183529 28 221 8.0 20.9 0.00 0.71 0.03 1 1015.8
20260510183029 27 134 9.7 19.3 0.00 0.71 0.03 1 1016.1
20260510182525 27 145 12.9 19.3 0.00 0.71 0.03 1 1016.1
20260510182025 28 128 6.4 19.3 0.00 0.71 0.03 1 1016.1
20260510181523 28 92 6.4 16.1 0.00 0.71 0.03 8 1016.2
20260510181022 28 145 9.7 16.1 0.00 0.71 0.03 9 1016.3
20260510180522 28 193 4.8 22.5 0.00 0.71 0.03 8 1016.4
20260510180022 28 106 4.8 22.5 0.00 0.71 0.03 21 1016.4
20260510175521 28 163 8.0 22.5 0.00 1.80 0.03 17 1016.5
20260510175016 28 122 6.4 16.1 0.00 1.80 0.03 9 1016.6
20260510174514 27 157 6.4 14.5 0.00 1.80 0.03 1 1016.7
20260510174013 27 103 4.8 14.5 0.00 1.80 0.03 8 1016.7
20260510173515 27 134 6.4 14.5 0.00 1.80 0.03 6 1016.7
20260510173009 27 147 4.8 16.1 0.00 1.80 0.03 5 1016.6
20260510172508 27 136 8.0 17.7 0.00 1.80 0.03 9 1016.6
20260510172007 27 136 6.4 17.7 0.00 1.80 0.03 5 1016.9
20260510171506 27 128 11.3 17.7 0.00 1.80 0.03 1 1016.8
20260510171005 27 155 4.8 14.5 0.00 1.80 0.03 1 1016.9
20260510170502 27 103 6.4 14.5 0.00 1.80 0.03 1 1017.0
20260510170001 27 90 4.8 19.3 0.00 1.80 0.03 1 1017.1
20260510165600 27 109 9.7 19.3 0.00 2.84 0.03 1 1017.0
20260510165057 27 76 6.4 16.1 0.00 2.84 0.03 1 1017.0
20260510164606 27 162 4.8 14.5 0.00 2.84 0.03 1 1017.0
20260510164054 27 63 6.4 14.5 0.00 2.84 0.03 1 1016.9
20260510163553 26 136 4.8 12.9 0.00 2.84 0.03 1 1016.9
20260510163052 26 119 6.4 12.9 0.00 2.84 0.03 1 1016.9
20260510162551 26 100 4.8 14.5 0.00 2.84 0.03 1 1016.9
20260510162049 26 82 8.0 14.5 0.00 2.84 0.03 1 1017.0
20260510161548 26 78 6.4 14.5 0.00 2.84 0.03 1 1017.0
20260510161046 26 85 8.0 16.1 0.00 2.84 0.03 1 1016.8
20260510160547 26 88 6.4 16.1 0.00 2.84 0.03 1 1016.9
20260510160043 26 170 6.4 14.5 0.00 2.84 0.03 1 1016.9
20260510155541 25 159 9.7 14.5 0.00 3.05 0.03 1 1016.8
20260510155040 25 98 8.0 16.1 0.00 3.05 0.03 1 1016.8
20260510154539 25 165 8.0 19.3 0.00 3.05 0.03 1 1016.8
20260510154037 25 82 8.0 17.7 0.00 3.05 0.03 1 1016.8
20260510153535 24 98 8.0 16.1 0.00 3.05 0.03 1 1016.9
20260510153042 24 28 9.7 16.1 0.00 3.05 0.03 1 1016.8
20260510152533 24 74 9.7 14.5 0.00 3.05 0.03 1 1016.9
20260510152031 24 123 3.2 14.5 0.00 3.05 0.03 1 1017.0
20260510151535 23 74 6.4 16.1 0.00 3.05 0.03 1 1016.9
20260510151030 23 95 6.4 16.1 0.00 3.05 0.03 1 1016.9
20260510150527 23 73 8.0 17.7 0.00 3.05 0.03 1 1016.9
20260510150026 23 82 9.7 17.7 0.00 3.05 0.03 1 1016.9
20260510145525 22 88 8.0 17.7 0.00 3.38 0.03 1 1016.8
20260510145023 22 77 11.3 17.7 0.00 3.38 0.03 1 1016.9
20260510144521 22 107 9.7 16.1 0.00 3.38 0.03 1 1017.0
20260510144021 22 58 8.0 16.1 0.00 3.38 0.03 1 1017.0
20260510143517 22 69 8.0 17.7 0.00 3.38 0.03 1 1016.8
20260510143020 22 63 8.0 19.3 0.00 3.38 0.03 1 1016.7
20260510142517 22 53 9.7 19.3 0.00 3.38 0.03 1 1016.7
20260510142014 22 82 8.0 17.7 0.00 3.38 0.03 1 1016.7
20260510141512 21 61 8.0 16.1 0.00 3.38 0.03 1 1016.7
20260510141011 21 85 8.0 14.5 0.00 3.38 0.03 1 1016.7
20260510140509 21 92 6.4 14.5 0.00 3.38 0.03 1 1016.7
20260510140009 21 75 6.4 16.1 0.00 3.38 0.03 1 1016.6
20260510135506 21 101 9.7 19.3 0.00 4.37 0.03 1 1016.6
20260510135005 21 51 6.4 19.3 0.00 4.37 0.03 1 1016.7
20260510134504 21 71 4.8 12.9 0.00 4.37 0.03 1 1016.7
20260510134001 21 67 1.6 11.3 0.00 4.37 0.03 1 1016.8
20260510133605 21 74 6.4 11.3 0.00 4.37 0.03 1 1016.8
20260510133100 21 82 4.8 8.0 0.00 4.37 0.03 1 1016.8
20260510132557 21 62 4.8 11.3 0.00 4.37 0.03 1 1016.6
20260510132056 21 63 4.8 11.3 0.00 4.37 0.03 1 1016.6
20260510131555 20 64 3.2 11.3 0.00 4.37 0.03 1 1016.4
20260510131053 21 62 3.2 11.3 0.00 4.37 0.03 1 1016.4
20260510130551 20 83 1.6 11.3 0.00 4.37 0.03 1 1016.4
20260510130051 20 81 1.6 9.7 0.00 4.37 0.03 1 1016.1
20260510125548 20 89 4.8 11.3 0.00 4.37 0.03 1 1016.0
20260510125047 20 78 4.8 12.9 0.00 4.37 0.03 1 1015.9
20260510124558 20 63 4.8 12.9 0.00 4.37 0.03 1 1015.7
20260510124045 20 80 1.6 8.0 0.00 4.37 0.03 1 1015.7
20260510123543 20 72 1.6 8.0 0.00 4.37 0.03 1 1015.7
20260510123041 20 98 3.2 11.3 0.00 4.37 0.03 1 1015.6
20260510122538 20 95 4.8 11.3 0.00 4.37 0.03 1 1015.5
20260510122038 20 87 1.6 11.3 0.00 4.37 0.03 1 1015.5
20260510121540 20 80 4.8 12.9 0.00 4.37 0.03 1 1015.5
20260510121035 20 84 3.2 12.9 0.00 4.37 0.03 1 1015.4
20260510120533 20 83 3.2 11.3 0.00 4.37 0.03 1 1015.3
20260510120033 20 92 3.2 11.3 0.00 4.37 0.03 1 1015.3
20260510115530 20 111 3.2 11.3 0.00 4.37 0.03 1 1015.2
20260510115029 20 121 3.2 9.7 0.00 4.37 0.03 1 1015.1
20260510114528 20 103 3.2 11.3 0.00 4.37 0.03 1 1015.0
20260510114026 20 93 4.8 11.3 0.00 4.37 0.03 1 1015.1
20260510113525 20 79 4.8 11.3 0.00 4.37 0.03 1 1015.0
20260510113024 20 92 1.6 9.7 0.00 4.37 0.03 1 1014.9
20260510112522 19 71 0.0 11.3 0.00 4.37 0.03 1 1014.8
20260510112021 19 100 6.4 11.3 0.00 4.37 0.03 1 1014.6
20260510111522 19 87 1.6 11.3 0.00 4.37 0.03 1 1014.6
20260510111018 19 103 3.2 11.3 0.00 4.37 0.03 1 1014.5
20260510110516 19 109 6.4 11.3 0.00 4.37 0.03 1 1014.4
20260510110032 19 88 4.8 12.9 0.00 4.37 0.03 1 1014.3
20260510105513 19 119 3.2 12.9 0.00 4.37 0.03 1 1014.3
20260510105012 19 95 1.6 6.4 0.00 4.37 0.03 1 1014.3
20260510104511 19 95 0.0 6.4 0.00 4.37 0.03 1 1014.2
20260510104012 19 121 3.2 6.4 0.00 4.37 0.03 1 1014.1
20260510103508 19 105 1.6 6.4 0.00 4.37 0.03 1 1014.0
20260510103006 19 98 1.6 6.4 0.00 4.37 0.03 1 1013.9
20260510102505 19 105 0.0 0.0 0.00 4.37 0.03 1 1013.8
20260510102005 19 105 0.0 0.0 0.00 4.37 0.03 1 1013.8
20260510101501 19 115 0.0 0.0 0.00 4.37 0.03 1 1013.7
20260510101100 19 115 0.0 6.4 0.00 4.37 0.03 1 1013.6
20260510100559 18 115 1.6 6.4 0.00 4.37 0.03 1 1013.5
20260510095555 18 96 0.0 0.0 0.00 4.37 0.03 1 1013.5
20260510095056 18 96 0.0 0.0 0.00 4.37 0.03 1 1013.4
20260510094554 18 96 0.0 0.0 0.00 4.37 0.03 1 1013.4
20260510094052 18 96 0.0 0.0 0.00 4.37 0.03 1 1013.4
20260510093550 18 96 0.0 0.0 0.00 4.37 0.03 1 1013.4
20260510093053 18 96 0.0 0.0 0.00 4.37 0.03 1 1013.3
20260510092547 19 96 0.0 0.0 0.00 4.37 0.03 1 1013.3
20260510092046 19 96 0.0 0.0 0.00 4.37 0.03 1 1013.3
20260510091544 19 96 0.0 4.8 0.00 4.37 0.03 1 1013.3
20260510091043 19 96 1.6 4.8 0.00 4.37 0.03 1 1013.3
20260510090545 19 96 0.0 9.7 0.03 4.37 0.03 1 1013.2
20260510090040 19 92 3.2 9.7 0.03 4.37 0.03 1 1013.2
20260510085538 19 63 3.2 8.0 0.03 4.37 0.03 1 1013.1
20260510085042 19 66 4.8 8.0 0.03 4.37 0.03 1 1013.1
20260510084537 19 63 3.2 9.7 0.03 4.37 0.03 1 1013.2
20260510084034 19 44 4.8 9.7 0.03 4.37 0.03 1 1013.2
20260510083533 19 52 3.2 9.7 0.03 4.37 0.03 1 1013.1
20260510083030 19 66 3.2 9.7 0.03 4.37 0.03 1 1013.1
20260510082529 18 55 4.8 11.3 0.03 4.37 0.03 1 1013.1
20260510082028 18 59 3.2 8.0 0.03 4.37 0.03 1 1013.1
20260510081526 18 70 0.0 6.4 0.03 4.37 0.03 1 1013.0
20260510081025 18 55 0.0 0.0 0.03 4.37 0.03 1 1013.0
20260510080525 18 55 0.0 0.0 0.00 4.34 0.00 1 1012.8
20260510080027 18 55 0.0 0.0 0.00 4.34 0.00 1 1012.9
20260510075521 18 55 0.0 0.0 0.00 4.34 0.00 1 1012.8
20260510075020 18 55 0.0 0.0 0.00 4.34 0.00 1 1012.9
20260510074518 18 53 0.0 0.0 0.00 4.34 0.00 1 1012.9
20260510074020 18 54 0.0 0.0 0.00 4.34 0.00 1 1012.8
20260510073516 18 54 0.0 0.0 0.00 4.34 0.00 1 1012.7
20260510073013 18 55 0.0 0.0 0.00 4.34 0.00 1 1012.6
20260510072512 18 55 0.0 0.0 0.00 4.34 0.00 1 1012.5
20260510072016 18 55 0.0 0.0 0.00 4.34 0.00 1 1012.6
20260510071508 18 51 0.0 0.0 0.00 4.34 0.00 1 1012.6
20260510071007 18 53 0.0 0.0 0.00 4.34 0.00 1 1012.6
20260510070506 18 53 0.0 0.0 0.00 4.34 0.00 1 1012.6
20260510070008 18 53 0.0 0.0 0.00 4.34 0.00 1 1012.7
20260510065504 18 53 0.0 0.0 0.00 4.34 0.00 1 1012.7
20260510065002 18 53 0.0 0.0 0.00 4.34 0.00 1 1012.7
20260510064602 18 53 0.0 0.0 0.00 4.34 0.00 1 1012.7
20260510064059 18 53 0.0 0.0 0.00 4.34 0.00 1 1012.7
20260510063557 18 53 0.0 0.0 0.00 4.34 0.00 1 1012.6
20260510063056 18 53 0.0 4.8 0.00 4.34 0.00 1 1012.6
20260510062555 18 53 1.6 4.8 0.00 4.34 0.00 1 1012.7
20260510062053 18 53 1.6 6.4 0.00 4.34 0.00 1 1012.7
20260510061551 18 53 1.6 6.4 0.00 4.34 0.00 1 1012.8
20260510061051 18 55 3.2 6.4 0.00 4.34 0.00 1 1012.8
20260510060550 18 87 0.0 1.6 0.00 4.34 0.00 1 1012.7
20260510060048 18 155 0.0 0.0 0.00 4.34 0.00 1 1012.6
20260510055545 19 155 0.0 0.0 0.00 4.34 0.00 1 1012.6
20260510055044 19 155 0.0 0.0 0.00 4.34 0.00 1 1012.6
20260510054543 19 155 0.0 0.0 0.00 4.34 0.00 1 1012.6
20260510054042 19 155 0.0 0.0 0.00 4.34 0.00 1 1012.6
20260510053539 19 155 0.0 0.0 0.00 4.34 0.00 1 1012.6
20260510053038 19 155 0.0 0.0 0.00 4.34 0.00 1 1012.6
20260510052537 19 155 0.0 0.0 0.00 4.34 0.00 1 1012.6
20260510052035 19 155 0.0 0.0 0.00 4.34 0.00 1 1012.6
20260510051534 19 155 0.0 0.0 0.00 4.34 0.00 1 1012.7
20260510051035 19 155 0.0 3.2 0.00 4.34 0.00 1 1012.8
20260510050531 19 155 0.0 8.0 0.00 4.34 0.00 1 1012.7
20260510050030 19 165 1.6 8.0 0.00 4.34 0.00 1 1012.5
20260510045529 19 129 1.6 6.4 0.00 4.34 4.34 1 1012.7
20260510045030 19 141 0.0 4.8 0.00 4.34 4.34 1 1012.8
20260510044529 19 135 0.0 0.0 0.00 4.34 4.34 1 1013.1
20260510044029 19 135 0.0 6.4 0.00 4.34 4.34 1 1013.1
20260510043529 19 136 0.0 8.0 0.00 4.34 4.34 1 1013.0
20260510043029 19 157 1.6 8.0 0.00 4.34 4.34 1 1013.1
20260510042528 19 145 3.2 9.7 0.00 4.34 4.34 1 1012.9
20260510042028 19 144 1.6 9.7 0.00 4.34 4.34 1 1012.9
20260510041528 19 136 1.6 8.0 0.00 4.34 4.34 1 1012.9
20260510041028 19 159 1.6 4.8 0.00 4.34 4.34 1 1012.9
20260510040528 19 158 1.6 8.0 0.00 4.34 4.34 1 1013.0
20260510040028 19 145 1.6 6.4 0.00 4.34 4.34 1 1013.2
20260510035527 19 184 1.6 6.4 0.00 4.34 4.34 1 1013.4
20260510035027 19 202 1.6 8.0 0.00 4.34 4.34 1 1013.6
20260510034528 19 203 3.2 8.0 0.00 4.34 4.34 1 1013.7
20260510034027 19 215 3.2 8.0 0.00 4.34 4.34 1 1013.7
20260510033526 19 210 0.0 8.0 0.00 4.34 4.34 1 1013.7
20260510033026 19 210 3.2 8.0 0.00 4.34 4.34 1 1013.8
20260510032528 19 202 1.6 6.4 0.00 4.34 4.34 1 1013.8
20260510032026 19 200 0.0 0.0 0.00 4.34 4.34 1 1013.7
20260510031526 19 200 0.0 0.0 0.00 4.34 4.34 1 1013.7
20260510031026 19 200 0.0 0.0 0.00 4.34 4.34 1 1013.6
20260510030526 19 200 0.0 0.0 0.00 4.34 4.34 1 1013.6
20260510030027 19 200 0.0 0.0 0.00 4.34 4.34 1 1013.6
20260510025525 19 200 0.0 0.0 0.00 4.34 4.34 1 1013.6
20260510025025 19 200 0.0 0.0 0.00 4.34 4.34 1 1013.7
20260510024527 19 200 0.0 1.6 0.00 4.34 4.34 1 1013.7
20260510024024 19 200 0.0 3.2 0.00 4.34 4.34 1 1013.5
20260510023524 19 202 0.0 4.8 0.00 4.34 4.34 1 1013.5
20260510023027 19 201 0.0 6.4 0.00 4.34 4.34 1 1013.3
20260510022528 19 203 3.2 6.4 0.00 4.34 4.34 1 1013.2
20260510022024 19 185 1.6 4.8 0.00 4.34 4.34 1 1013.2
20260510021528 19 184 0.0 4.8 0.00 4.34 4.34 1 1013.1
20260510021023 20 192 0.0 4.8 0.00 4.34 4.34 1 1013.1
20260510020523 20 212 0.0 11.3 0.00 4.34 4.34 1 1012.9
20260510020023 20 198 3.2 11.3 0.00 4.34 4.34 1 1012.8
20260510015524 20 155 1.6 11.3 0.00 4.34 4.34 1 1012.9
20260510015022 20 174 3.2 11.3 0.00 4.34 4.34 1 1012.9
20260510014523 20 146 3.2 12.9 0.00 4.34 4.34 1 1012.8
20260510014023 20 154 3.2 12.9 0.00 4.34 4.34 1 1012.8
20260510013521 20 117 0.0 11.3 0.00 4.34 4.34 1 1012.9
20260510013022 20 171 3.2 12.9 0.00 4.34 4.34 1 1012.9
20260510012522 20 144 1.6 11.3 0.03 4.34 4.34 1 1012.7
20260510012021 20 128 4.8 14.5 0.03 4.34 4.34 1 1012.5
20260510011522 20 116 4.8 14.5 0.03 4.34 4.34 1 1012.6
20260510011021 20 142 3.2 9.7 0.03 4.34 4.34 1 1012.6
20260510010522 20 176 1.6 6.4 0.03 4.34 4.34 1 1012.6
20260510010021 20 111 1.6 9.7 0.03 4.34 4.34 1 1012.7
20260510005522 20 129 3.2 11.3 0.03 4.34 4.34 1 1012.7
20260510005025 20 135 1.6 11.3 0.03 4.34 4.34 1 1012.9
20260510004522 20 169 3.2 8.0 0.03 4.34 4.34 1 1012.9
20260510004021 20 184 1.6 12.9 0.03 4.34 4.34 1 1013.0
20260510003520 20 141 3.2 12.9 0.03 4.34 4.34 1 1012.7
20260510003020 20 160 0.0 4.8 0.05 4.34 4.34 1 1012.8
20260510002519 20 143 0.0 6.4 0.05 4.32 4.32 1 1012.7
20260510002019 20 136 3.2 6.4 0.05 4.32 4.32 1 1012.6
20260510001519 20 155 1.6 8.0 0.05 4.32 4.32 1 1012.7
20260510001019 20 144 3.2 8.0 0.05 4.32 4.32 1 1012.6
20260510000518 20 144 3.2 8.0 0.05 4.32 4.32 1 1012.4
20260510000019 20 149 1.6 8.0 0.08 4.32 4.32 1 1012.5
20260509235520 20 132 3.2 8.0 0.08 4.39 4.32 1 1012.6
20260509235020 20 166 1.6 4.8 0.08 4.39 4.32 1 1012.8
20260509234534 20 166 0.0 4.8 0.10 4.39 4.32 1 1012.7
20260509234017 20 176 0.0 0.0 0.10 4.39 4.32 1 1012.7
20260509233515 20 177 0.0 0.0 0.10 4.39 4.32 1 1012.8
20260509233014 20 177 0.0 4.8 0.08 4.37 4.29 1 1013.0
20260509232512 20 177 1.6 4.8 0.05 4.34 4.27 1 1013.1
20260509232017 20 161 0.0 0.0 0.05 4.34 4.27 1 1013.1
20260509231515 20 155 0.0 1.6 0.05 4.34 4.27 1 1012.7
20260509231008 20 155 0.0 4.8 0.08 4.34 4.27 1 1012.8
20260509230507 20 125 0.0 8.0 0.08 4.34 4.27 1 1012.6
20260509230006 20 213 3.2 8.0 0.05 4.32 4.24 1 1012.7
20260509225504 20 156 0.0 8.0 0.05 4.80 4.24 1 1012.6
20260509225002 20 166 1.6 11.3 0.05 4.80 4.24 1 1012.6
20260509224503 20 200 1.6 11.3 0.03 4.78 4.22 1 1012.6
20260509224102 20 186 3.2 11.3 0.03 4.78 4.22 1 1012.6
20260509223558 20 158 1.6 11.3 0.03 4.78 4.22 1 1012.5
20260509223103 20 199 4.8 11.3 0.03 4.78 4.22 1 1012.4
20260509222558 20 188 1.6 8.0 0.03 4.78 4.22 1 1012.1
20260509222054 20 229 0.0 8.0 0.03 4.78 4.22 1 1012.0
20260509221552 20 157 0.0 0.0 0.03 4.78 4.22 1 1012.0
20260509221051 20 155 0.0 0.0 0.00 4.75 4.19 1 1011.7
20260509220549 20 154 0.0 0.0 0.00 4.75 4.19 1 1011.6
20260509220048 20 155 0.0 3.2 0.00 4.75 4.19 1 1011.7
20260509215546 20 195 0.0 8.0 0.00 6.65 4.19 1 1011.9
20260509215046 20 195 1.6 8.0 0.00 6.65 4.19 1 1011.9
20260509214544 20 117 3.2 14.5 0.00 6.65 4.19 1 1011.7
20260509214044 20 262 1.6 14.5 0.00 6.65 4.19 1 1012.0
20260509213540 20 200 3.2 16.1 0.03 6.65 4.19 1 1011.9
20260509213041 20 169 4.8 16.1 0.03 6.65 4.19 1 1011.8
20260509212538 20 223 6.4 16.1 0.05 6.65 4.19 1 1011.8
20260509212037 20 170 4.8 17.7 0.08 6.65 4.19 1 1011.7
20260509211538 20 157 3.2 12.9 0.10 6.65 4.19 1 1011.8
20260509211037 20 117 3.2 16.1 0.10 6.65 4.19 1 1011.8
20260509210537 20 150 6.4 11.3 0.13 6.65 4.19 1 1011.8
20260509210037 20 144 1.6 8.0 0.15 6.65 4.19 1 1011.7
20260509205539 20 134 3.2 12.9 0.18 7.98 4.19 1 1011.5